South Padre Island, TX

11:29 AM CDT on May 27, 2018 (GMT -0500)
South Padre Island

Weather History for KSPL - April, 2014

Change the Weather History Date:

Tuesday, April 15, 2014

  Actual Average (WUND) Record (WUND)
Temperature  
Mean Temperature 58 °F -  
Max Temperature 62 °F - - (-1)
Min Temperature 55 °F - - (-1)
Degree Days  
Heating Degree Days 6    
Growing Degree Days 8 (Base 50)    
Moisture  
Dew Point 41 °F    
Average Humidity 51    
Maximum Humidity 67    
Minimum Humidity 37    
Precipitation  
Precipitation 0.00 in - - ()
Sea Level Pressure  
Sea Level Pressure 30.24 in    
Wind  
Wind Speed 0 mph (North)    
Max Wind Speed 0 mph    
Max Gust Speed -    
Visibility 4 miles    
Events Rain    
Averages and records for this station are not official NWS values.
T = Trace of Precipitation, MM = Missing Value Source: NWS Daily Summary

Daily Weather History Graph

Daily Weather History Graph

Search for Another Location

Airport or City:

Astronomy

Apr. 15, 2014 Rise Set
Actual Time 7:05 AM CDT 7:52 PM CDT
Civil Twilight 6:41 AM CDT 8:15 PM CDT
Nautical Twilight 6:14 AM CDT 8:43 PM CDT
Astronomical Twilight 5:45 AM CDT 9:11 PM CDT
Moon 8:30 PM CDT (4/15) 7:15 AM CDT (4/15)
Length of Visible Light 13h 33m
Length of Day
12h 46m
Full, 100% of the Moon is Illuminated
Apr 15
Full
Apr 22
Last Quarter
Apr 29
New
May 6
First Quarter
May 14
Full

Hourly Weather History & Observations

Time (CDT) Temp. Dew Point Humidity Pressure Visibility Wind Dir Wind Speed Gust Speed Precip Events Conditions
12:15 AM 62.6 °F 50.0 °F 63% 30.14 in 3.0 mi Calm Calm - N/A Rain Light Rain
12:35 AM 62.6 °F 48.2 °F 59% 30.14 in 5.0 mi Calm Calm - N/A Rain Light Rain
12:55 AM 60.8 °F 48.2 °F 63% 30.15 in 3.0 mi Calm Calm - N/A Rain Light Rain
1:15 AM 60.8 °F 48.2 °F 63% 30.16 in 1.8 mi Calm Calm - N/A Rain Light Rain
1:35 AM 60.8 °F 46.4 °F 59% 30.18 in 3.0 mi Calm Calm - N/A Rain Light Rain
1:55 AM 59.0 °F 46.4 °F 63% 30.19 in 5.0 mi Calm Calm - N/A Rain Light Rain
2:15 AM 59.0 °F 46.4 °F 63% 30.20 in 1.5 mi Calm Calm - N/A   Haze
2:35 AM 59.0 °F 44.6 °F 59% 30.20 in 5.0 mi Calm Calm - N/A Rain Light Rain
2:55 AM 59.0 °F 44.6 °F 59% 30.21 in 5.0 mi Calm Calm - N/A   Haze
3:15 AM 59.0 °F 44.6 °F 59% 30.20 in 5.0 mi Calm Calm - N/A Rain Light Rain
3:35 AM 59.0 °F 41.0 °F 51% 30.21 in - Calm Calm - N/A   Clear
3:55 AM 59.0 °F 41.0 °F 51% 30.21 in - Calm Calm - N/A   Partly Cloudy
4:15 AM 57.2 °F 39.2 °F 51% 30.21 in - Calm Calm - N/A   Clear
4:35 AM 57.2 °F 37.4 °F 48% 30.22 in - Calm Calm - N/A   Clear
4:55 AM 59.0 °F 39.2 °F 48% 30.22 in - Calm Calm - N/A Rain Light Rain
5:15 AM 57.2 °F 39.2 °F 51% 30.24 in - Calm Calm - N/A   Partly Cloudy
5:35 AM 57.2 °F 39.2 °F 51% 30.24 in - Calm Calm - N/A   Scattered Clouds
5:55 AM 55.4 °F 39.2 °F 54% 30.25 in - Calm Calm - N/A   Scattered Clouds
6:15 AM - - N/A% 30.26 in - Calm Calm - N/A   Unknown
6:35 AM 55.4 °F 41.0 °F 58% 30.26 in - Calm Calm - N/A   Mostly Cloudy
6:55 AM 55.4 °F 39.2 °F 54% 30.27 in - Calm Calm - N/A   Partly Cloudy
7:15 AM 55.4 °F 39.2 °F 54% 30.27 in - Calm Calm - N/A   Mostly Cloudy
7:35 AM 55.4 °F 39.2 °F 54% 30.28 in - Calm Calm - N/A   Scattered Clouds
7:55 AM 55.4 °F 39.2 °F 54% 30.29 in - Calm Calm - N/A   Partly Cloudy
8:15 AM 55.4 °F 39.2 °F 54% 30.31 in - Calm Calm - N/A   Clear
8:35 AM 55.4 °F 39.2 °F 54% 30.31 in - Calm Calm - N/A   Clear
8:55 AM 57.2 °F 39.2 °F 51% 30.31 in - Calm Calm - N/A   Clear
9:15 AM 59.0 °F 39.2 °F 48% 30.31 in - Calm Calm - N/A Rain Light Rain
9:35 AM 57.2 °F 39.2 °F 51% 30.32 in - Calm Calm - N/A Rain Light Rain
9:55 AM 59.0 °F 39.2 °F 48% 30.33 in - Calm Calm - N/A Rain Light Rain
10:15 AM 59.0 °F 39.2 °F 48% 30.33 in - Calm Calm - N/A Rain Light Rain
10:35 AM 59.0 °F 41.0 °F 51% 30.34 in - Calm Calm - N/A Rain Light Rain
10:55 AM 60.8 °F 37.4 °F 42% 30.35 in - Calm Calm - N/A   Clear
11:15 AM 62.6 °F 41.0 °F 45% 30.35 in - Calm Calm - N/A Rain Light Rain
11:35 AM 60.8 °F 39.2 °F 45% 30.35 in - Calm Calm - N/A Rain Light Rain
11:55 AM 60.8 °F 37.4 °F 42% 30.34 in - Calm Calm - N/A Rain Light Rain
12:35 PM 60.8 °F 41.0 °F 48% 30.34 in - Calm Calm - N/A Rain Light Rain
12:55 PM 60.8 °F 41.0 °F 48% 30.33 in - Calm Calm - N/A Rain Light Rain
1:15 PM 62.6 °F 41.0 °F 45% 30.31 in - Calm Calm - N/A Rain Light Rain
1:35 PM 62.6 °F 41.0 °F 45% 30.30 in - Calm Calm - N/A Rain Light Rain
1:55 PM 62.6 °F 41.0 °F 45% 30.29 in - Calm Calm - N/A Rain Light Rain
2:15 PM 60.8 °F 41.0 °F 48% 30.27 in - Calm Calm - N/A Rain Light Rain
2:35 PM - - N/A% 30.26 in - Calm Calm - N/A Rain Light Rain
2:55 PM 62.6 °F 39.2 °F 42% 30.27 in - Calm Calm - N/A Rain Light Rain
3:15 PM 62.6 °F 37.4 °F 39% 30.24 in - Calm Calm - N/A Rain Light Rain
3:35 PM 62.6 °F 35.6 °F 37% 30.23 in - Calm Calm - N/A Rain Light Rain
3:55 PM 62.6 °F 37.4 °F 39% 30.22 in - Calm Calm - N/A   Clear
4:15 PM 62.6 °F 37.4 °F 39% 30.21 in - Calm Calm - N/A   Clear
4:35 PM 62.6 °F 37.4 °F 39% 30.20 in - Calm Calm - N/A   Clear
4:55 PM 62.6 °F 39.2 °F 42% 30.19 in - Calm Calm - N/A   Clear
5:15 PM 62.6 °F 39.2 °F 42% 30.19 in - Calm Calm - N/A   Clear
5:35 PM 62.6 °F 39.2 °F 42% 30.20 in - Calm Calm - N/A   Clear
5:55 PM 62.6 °F 37.4 °F 39% 30.20 in - Calm Calm - N/A   Clear
6:15 PM 62.6 °F 37.4 °F 39% 30.20 in - Calm Calm - N/A   Clear
6:35 PM 60.8 °F 39.2 °F 45% 30.20 in - Calm Calm - N/A   Clear
6:55 PM 60.8 °F 35.6 °F 39% 30.20 in - Calm Calm - N/A   Clear
7:15 PM 59.0 °F 35.6 °F 42% 30.19 in - Calm Calm - N/A   Clear
7:35 PM 59.0 °F 37.4 °F 45% 30.20 in - Calm Calm - N/A Rain Light Rain
7:55 PM 57.2 °F 37.4 °F 48% 30.19 in - Calm Calm - N/A Rain Light Rain
8:15 PM 57.2 °F 39.2 °F 51% 30.19 in - Calm Calm - N/A   Clear
8:35 PM 57.2 °F 39.2 °F 51% 30.19 in - Calm Calm - N/A   Clear
8:55 PM 57.2 °F 41.0 °F 55% 30.20 in - Calm Calm - N/A   Clear
9:15 PM 57.2 °F 41.0 °F 55% 30.20 in - Calm Calm - N/A   Clear
9:35 PM 57.2 °F 41.0 °F 55% 30.20 in - Calm Calm - N/A   Clear
9:55 PM 57.2 °F 41.0 °F 55% 30.20 in - Calm Calm - N/A   Clear
10:15 PM 57.2 °F 41.0 °F 55% 30.21 in - North - - N/A   Clear
10:35 PM 57.2 °F 42.8 °F 59% 30.21 in - North - - N/A   Clear
10:55 PM 57.2 °F 42.8 °F 59% 30.20 in - North - - N/A   Clear
11:15 PM 57.2 °F 44.6 °F 63% 30.20 in - North - - N/A   Clear
11:35 PM 57.2 °F 44.6 °F 63% 30.20 in - North - - N/A   Clear
11:55 PM 57.2 °F 46.4 °F 67% 30.19 in - North - - N/A   Clear